This is the latest recevied weather packets stored in our database for station/object WB6ANP. If no packets are shown the sender has not sent any weather packets the latest 10 day(s).
| Time | Temp. | Humidity | Pressure | Rain* | Wind** | Luminosity | Snow |
|---|---|---|---|---|---|---|---|
| 1777148936 | 31.67° C | 54% | 1005 hPa | 0 mm | - | 779 W/m² | - |
| 1777148632 | 31.67° C | 57% | 1004.9 hPa | 0 mm | - | 786 W/m² | - |
| 1777148328 | 31.67° C | 58% | 1005 hPa | 0 mm | - | 833 W/m² | - |
| 1777148025 | 31.11° C | 56% | 1005 hPa | 0 mm | - | 706 W/m² | - |
| 1777147721 | 31.11° C | 56% | 1005.1 hPa | 0 mm | - | 826 W/m² | - |
| 1777147417 | 31.11° C | 58% | 1005.4 hPa | 0 mm | - | 848 W/m² | - |
| 1777147112 | 31.11° C | 58% | 1005.4 hPa | 0 mm | - | 834 W/m² | - |
| 1777146808 | 31.11° C | 57% | 1005.5 hPa | 0 mm | - | 896 W/m² | - |
| 1777146505 | 30.56° C | 62% | 1005.4 hPa | 0 mm | - | 903 W/m² | - |
| 1777146201 | 30° C | 60% | 1005.5 hPa | 0 mm | - | 938 W/m² | - |
| 1777145897 | 30.56° C | 59% | 1005.5 hPa | 0 mm | - | 553 W/m² | - |
| 1777145594 | 30.56° C | 60% | 1005.4 hPa | 0 mm | - | 272 W/m² | - |
| 1777145288 | 30.56° C | 60% | 1005.5 hPa | 0 mm | - | 903 W/m² | - |
| 1777144983 | 30.56° C | 59% | 1005.7 hPa | 0 mm | - | 901 W/m² | - |
| 1777144683 | 30° C | 61% | 1005.7 hPa | 0 mm | - | 904 W/m² | - |
| 1777144377 | 30.56° C | 60% | 1005.8 hPa | 0 mm | - | 951 W/m² | - |
| 1777144074 | 30° C | 62% | 1005.7 hPa | 0 mm | - | 1004 W/m² | - |
| 1777143770 | 30° C | 61% | 1005.8 hPa | 0 mm | - | 324 W/m² | - |
| 1777143467 | 30.56° C | 62% | 1006.1 hPa | 0 mm | - | 981 W/m² | - |
| 1777143163 | 30° C | 62% | 1006.1 hPa | 0 mm | - | 964 W/m² | - |
| 1777142858 | 30° C | 63% | 1006.1 hPa | 0 mm | - | 995 W/m² | - |
| 1777142556 | 30° C | 62% | 1006 hPa | 0 mm | - | 508 W/m² | - |
| 1777142254 | 30° C | 61% | 1006.1 hPa | 0 mm | - | 573 W/m² | - |
| 1777141952 | 30° C | 62% | 1006.1 hPa | 0 mm | - | 975 W/m² | - |
| 1777141649 | 29.44° C | 63% | 1006.3 hPa | 0 mm | - | 919 W/m² | - |
* Rain latest hour (hover to see other rain measurements)
** Current wind speed in m/s (hover to see current wind gust speed)